sat.trackr.live / text

‹ back to catalog

STARLINK-6343

NORAD 57362 · 2023-099AL

PAYLOAD ACTIVE UNKNOWN

§ Identity

Operator
Country
US
Launch date
2023-07-16
Launch site
AFETR
Launch vehicle
Mass (kg)
RCS (m²)

Purposes: comms

External: N2YO · Heavens-Above · Gunter

§ Orbital elements

Epoch: 2026-05-25T03:13:09.380640Z

Period
94.27 min
Inclination
43.0033°
Eccentricity
0.0001538
Mean motion
15.27576603 rev/d
Perigee alt
482.0 km
Apogee alt
484.1 km
Semi-major
6,861.2 km
B*
3.5080e-5
RAAN
169.6882°
Arg perigee
273.6910°
Mean anomaly
86.3766°
Rev number
15,788

§ Raw data

STARLINK-63431 57362U 23099AL  26145.13413635  .00000703  00000+0  35080-4 0  99992 57362  43.0033 169.6882 0001538 273.6910  86.3766 15.27576603157880

JSON: /api/v1/satellites/57362 · /tle

For live sub-satellite position, see the globe view (requires WebGL).

§ Visibility from observer

Set your observer location to see the next 7 days of passes ≥ 10°. The values pass through the URL so the page stays shareable.

No JS? Fill the form by hand. The geolocation button needs JavaScript.